This is the latest recevied weather packets stored in our database for station/object DH8TOM-2. If no packets are shown the sender has not sent any weather packets the latest 1 day(s).
| Time | Temp. | Humidity | Pressure | Rain* | Wind** | Luminosity | Snow |
|---|---|---|---|---|---|---|---|
| 1777989471 | 15° C | 87% | 1005.7 hPa | 0.25 mm | 0.89 m/s, 301° | - | - |
| 1777989170 | 15° C | 88% | 1005.8 hPa | 0.25 mm | 0.89 m/s, 308° | - | - |
| 1777988869 | 15° C | 88% | 1005.8 hPa | 0.25 mm | 0.89 m/s, 308° | - | - |
| 1777988568 | 15.56° C | 87% | 1005.9 hPa | 0.51 mm | 0.45 m/s, 270° | - | - |
| 1777988266 | 15.56° C | 87% | 1005.9 hPa | 0.51 mm | 0.45 m/s, 270° | - | - |
| 1777987966 | 15.56° C | 86% | 1006 hPa | 0.51 mm | 0.45 m/s, 270° | - | - |
| 1777987664 | 15.56° C | 86% | 1006 hPa | 0.51 mm | 0.45 m/s, 270° | - | - |
| 1777987363 | 15.56° C | 86% | 1006.2 hPa | 0.76 mm | 0.45 m/s, 315° | - | - |
| 1777987063 | 15.56° C | 86% | 1006.2 hPa | 0.76 mm | 0.45 m/s, 315° | - | - |
| 1777986762 | 15.56° C | 85% | 1006.4 hPa | 1.02 mm | 0.45 m/s, 288° | - | - |
| 1777986460 | 15.56° C | 85% | 1006.4 hPa | 1.02 mm | 0.45 m/s, 288° | - | - |
| 1777986159 | 15.56° C | 86% | 1006.4 hPa | 1.78 mm | 0.45 m/s, 270° | - | - |
| 1777985859 | 15.56° C | 86% | 1006.4 hPa | 1.78 mm | 0.45 m/s, 270° | - | - |
| 1777985558 | 15.56° C | 85% | 1006.4 hPa | 2.54 mm | 0.45 m/s, 270° | - | - |
| 1777985256 | 15.56° C | 85% | 1006.4 hPa | 2.54 mm | 0.45 m/s, 270° | - | - |
| 1777984955 | 15.56° C | 85% | 1006.3 hPa | 2.54 mm | 0.45 m/s, 270° | - | - |
| 1777984654 | 15.56° C | 85% | 1006.3 hPa | 2.54 mm | 0.45 m/s, 270° | - | - |
| 1777984353 | 15.56° C | 84% | 1006.3 hPa | 2.54 mm | 0.45 m/s, 254° | - | - |
| 1777984053 | 15.56° C | 84% | 1006.3 hPa | 2.54 mm | 0.45 m/s, 254° | - | - |
| 1777983752 | 16.11° C | 82% | 1006.3 hPa | 2.29 mm | 0.45 m/s, 225° | - | - |
| 1777983451 | 16.11° C | 82% | 1006.3 hPa | 2.29 mm | 0.45 m/s, 225° | - | - |
| 1777983150 | 16.11° C | 80% | 1006.3 hPa | 2.03 mm | 0.45 m/s, 221° | - | - |
| 1777982848 | 16.11° C | 80% | 1006.3 hPa | 2.03 mm | 0.45 m/s, 221° | - | - |
| 1777982547 | 16.67° C | 77% | 1006.3 hPa | 1.27 mm | 1.34 m/s, 180° | - | - |
| 1777982246 | 16.67° C | 77% | 1006.3 hPa | 1.27 mm | 1.34 m/s, 180° | - | - |
* Rain latest hour (hover to see other rain measurements)
** Current wind speed in m/s (hover to see current wind gust speed)